Regional Weather Roundup
Issued by NWS Wakefield, VA

Home | Current Version | Previous Version | Graphics & Text | Print | Product List | Glossary On
Versions: 1 2 3 4 5 6 7 8 9 10 11 12 13 14 15 16 17 18 19 20 21 22 23 24 25 26 27 28 29 30 31 32 33 34 35 36 37 38 39 40 41 42 43 44 45 46 47 48 49 50
000
ASUS41 KAKQ 200910
RWRAKQ

REGIONAL WEATHER ROUNDUP
NATIONAL WEATHER SERVICE WAKEFIELD VA
500 AM EDT MON OCT 20 2014

Note: "fair" indicates few or no clouds below 12,000 feet with no
significant weather and/or obstructions to visibility. * = Denotes
station may not report precipitation (e.g., rain,snow,etc.),
thunder or fog.

VAZ042-051-052>054-056-201000-
NORTHERN VIRGINIA

CITY           SKY/WX    TMP DP  RH WIND       PRES   REMARKS
WASH NATIONAL  MOCLDY    47  37  68 CALM      30.12S
DULLES         MOCLDY    36  35  96 CALM      30.11R
FORT BELVOIR   PTCLDY    37  36  95 CALM      30.12R
QUANTICO       PTCLDY    41  38  89 NW9       30.13S
FREDERICKSBRG* CLEAR     37  37 100 CALM      30.12R
STAFFORD*      CLEAR     33  33 100 CALM      30.16R
WARRENTON      PTCLDY    34  34 100 CALM      30.11R
CULPEPER*      PTCLDY    36  36 100 CALM      30.12R
MANASSAS*      PTCLDY    37  37 100 CALM      30.12R
LEESBURG*      PTCLDY    37  37 100 CALM      30.11S
WINCHESTER     PTCLDY    37  32  81 CALM      30.08S
FRONT ROYAL*   MOSUNNY   37  36  93 CALM      30.08S
LURAY*         MOSUNNY   37  37 100 CALM      30.09S
$$

VAZ048-049-060>072-079>083-201000-
CENTRAL AND SOUTH CENTRAL VIRGINIA...AND NORTH CENTRAL NORTH CAROLINA

CITY           SKY/WX    TMP DP  RH WIND       PRES   REMARKS
RICHMOND       PTCLDY    41  37  86 CALM      30.12R
CHESTERFIELD*  SUNNY     37  27  65 CALM      30.14R
PETERSBURG*    CLEAR     34  34  99 CALM      30.13S
HANOVER        CLEAR     38  36  92 CALM      30.13S
TAPPAHANNOCK*  CLEAR     35  32  90 CALM      30.12S
CHARLOTTSVILLE PTCLDY    39  35  86 CALM      30.09S
ORANGE*        PTCLDY    36  36 100 CALM      30.11S
LOUISA*        PTCLDY    43  36  75 SE5       30.09S
FARMVILLE*     CLEAR     36  34  93 CALM      30.09S
CREWE*         SUNNY     35  33  93 CALM      30.11S
FORT PICKETT*  SUNNY     39  38  98 CALM      30.12R
LUNENBURG*     SUNNY     42  40  93 CALM      30.11S
SOUTH HILL*    CLEAR     39  39 100 CALM      30.17S
LAWRENCEVILLE* SUNNY     39  39  99 CALM      30.13R
ROANOKE RAPIDS SUNNY     37  37 100 CALM      30.13S
RALEIGH        PTCLDY    43  40  89 CALM      30.13S
$$

VAZ088>098-201000-
SOUTHEAST VIRGINIA

CITY           SKY/WX    TMP DP  RH WIND       PRES   REMARKS
NORFOLK        CLEAR     45  41  86 SW5       30.13S
VIRGINIA BEACH CLEAR     43  36  76 CALM      30.13R
NORFOLK NAVAL  CLEAR     50  44  80 S3        30.14S
WEST POINT*    CLOUDY    42  40  93 CALM      30.14S VSB<1/4
NEWPORT NEWS   CLEAR     42  37  82 CALM      30.13S
LANGLEY AFB    CLEAR     42  42 100 SW3       30.13S
FORT EUSTIS    CLEAR     43 N/A N/A E2        30.11S
WILLIAMSBURG*  CLEAR     45  43  93 CALM      30.13S
HR EXEC AP*    SUNNY     34  30  86 CALM      30.15S
FRANKLIN*      CLEAR     37  37 100 CALM      30.14R
WAKEFIELD      CLEAR     38  35  89 CALM      30.13S
$$

VAZ020-022-025-037-045-201000-
WEST CENTRAL AND SOUTHWEST VIRGINIA

CITY           SKY/WX    TMP DP  RH WIND       PRES   REMARKS
STAUNTON*      PTCLDY    33  31  91 CALM      30.11R
HOT SPRINGS VA PTCLDY    47  29  49 W15       30.04S
LYNCHBURG      PTCLDY    36  36 100 CALM      30.10F
DANVILLE       PTCLDY    40  37  89 SW3       30.12S
SOUTH BOSTON*  NOT AVBL
MARTINSVILLE   MOCLDY    36  36 100 CALM      30.14R FOG
ROANOKE        PTCLDY    40  36  86 SE3       30.11F
BLACKSBURG     PTCLDY    36  36 100 CALM      30.11S FOG
DUBLIN*        PTCLDY    36  36 100 CALM      30.11S
MARION*        PTCLDY    37  35  94 CALM      30.12S
HILLSVILLE*    PTCLDY    40  35  84 S8        30.09F
RICHLANDS*     CLOUDY    47  37  68 CALM      30.07S
WISE*          MOCLDY    43  36  75 S7        30.08S
ABINGDON*      MOCLDY    41  39  91 CALM      30.09S
$$

MDZ021>025-VAZ099-100-201000-
SOUTHERN MARYLAND AND THE DELMARVA PENINSULA

CITY           SKY/WX    TMP DP  RH WIND       PRES   REMARKS
PATUXENT RIVER PTCLDY    38  36  92 SW5       30.11S
BAY BRIDGE APT   N/A     43  39  87 CALM      30.11S
LEONARDTOWN    PTCLDY    36  34  93 CALM      30.13S
DOVER          CLEAR     39  35  86 W2        30.09S
GEORGETOWN     CLEAR     36  33  89 CALM      30.13R
EASTON         CLEAR     41  41 100 CALM      30.15R
CAMBRIDGE      CLEAR     37  36  93 CALM      30.11R
SALISBURY      CLEAR     37  33  85 CALM      30.12S
OCEAN CITY     CLEAR     34  32  92 CALM      30.12S
WALLOPS ISLAND CLEAR     40  37  89 CALM      30.13R
ACCOMACK*      CLEAR     37  36  93 CALM      30.12S
$$

NCZ012>017-030>032-201000-
EASTERN NORTH CAROLINA

CITY           SKY/WX    TMP DP  RH WIND       PRES   REMARKS
ELIZABETH CITY CLEAR     42  39  89 CALM      30.14S
AHOSKIE*       CLEAR     37  36  96 CALM      30.14S
EDENTON*       CLEAR     39  38  94 CALM      30.14S
CURRITUCK*     CLEAR     43  39  88 CALM      30.15R
KILL DEVIL HLS CLEAR     55  44  68 W3        30.13R
MANTEO         CLEAR     47  43  84 CALM      30.14R
CAPE HATTERAS  CLEAR     48  43  82 CALM      30.14R
TARBORO*       FOG       40  39  97 CALM      30.15S VSB<1/4
GOLDSBORO      CLEAR     41  40  98 E2        30.13R
WASHINGTON     CLEAR     41  39  93 CALM      30.15R
GREENVILLE     CLEAR     41  41 100 CALM      30.15S FOG
NEW BERN       FOG       43  40  89 CALM      30.16R VSB 1/4
WILMINGTON     CLEAR     45  43  93 CALM      30.14S
$$

VAZ048-201000-
ELSEWHERE

CITY           SKY/WX    TMP DP  RH WIND       PRES   REMARKS
HARRISBURG PA  PTCLDY    38  35  89 CALM      30.08S
BALTIMORE      PTCLDY    37  34  89 CALM      30.10S
ANNAPOLIS      CLEAR     41  38  89 CALM      30.11R
ANDREWS AFB    PTCLDY    39  37  93 S1        30.11R
WILMINGTON DE  CLEAR     38  35  89 CALM      30.12R
PHILADELPHIA   PTCLDY    41  32  70 S3        30.12R
WILDWOOD NJ*   CLEAR     37  28  70 CALM      30.13R
ATLANTIC CITY  PTCLDY    33  30  88 CALM      30.13R
HENDERSON NC   PTCLDY    41  39  94 SW5       30.12S
GREENSBORO     PTCLDY    44  40  85 SW3       30.12R
ROCKY MOUNT    CLEAR     39  37  92 CALM      30.14R
FAYETTEVILLE   PTCLDY    45  41  86 S5        30.14R
CHARLOTTE      CLOUDY    48  43  82 CALM      30.13R
$$

VAZ100-201000-
MARINE

STATION/POSITION TIME  TEMP    WIND        PRES    WAVE   SWELL
                       AIR SEA DIR/SP/G            HT/PER HT/PER
                 (UTC) (F)     (DEG/KT/KT) (MB)    (FT/S) (FT/S)
44066 TX TWR #4  0900   51 65  320/ 12/ 17 1018.3R   5/ 6   3/ 6
CAPE MAY NJ      0900   44 65   90/  3/  4 1019.4R
LEWES DE         0900   50 61     CALM     1019.6R
15NM E FENWICK I 0900   56 65  300/  8/ 12 1019.5R   3/13   2/13
OCEAN-CITY-INLET 0900   49 64   10/  1/  2 1019.4F
WACHAPREAGUE VA  0900   42 61  300/  2/  3 1020.0S
THOMAS POINT MD  0900   53 64  330/  1/  2 1020.5R
GOOSES REEF MD   0900   56        CALM     1020.1R
COVE POINT MD    0900   51     260/  3/  4 1019.6R
SOLOMONS ISLAND  0900      65                N/A
BISHOPS HEAD MD  0900   53 57   40/  4/  5 1019.3S
PINEY POINT MD   0900           CALM  /  1   N/A
POTOMAC MD       0900   57     320/  4/  6 1019.1S
CAMBRIDGE MD     0900   44 63  190/  4/  4 1019.5R
LEWISETTA VA     0900   48 62  240/  3/  3 1019.6R
RAPPAHANNOCK LGT 0900          100/  6/  7 1020.1S
STINGRAY PT      0900   58     320/  2/  4 1020.3S
YORK RVR RNG VA  0900   57     340/  2/  3 1019.6R
YORKTOWN VA      0900   49 66  240/  2/  2 1019.8R
JAMESTOWN VA     0900   49      70/  2/  2   N/A
DOMINION TERM VA 0900   56     240/  4/  5 1020.1R
KIPTOPEKE VA     0900      68  110/  4/  4   N/A
CHES BAY BRIDGE  0900   56 67  190/  6/  7 1019.6R
CHESAPEAKE LGHT  0800   59      20/  6/  7 1020.4R
WILLOUBY STN VA  0900   58     340/  2/  3 1018.7R
S CRANEY ISL VA  0900          210/  3/  4 1020.0R
CAPE HENRY BUOY  0900      69                N/A     3/12   2/12
1ST LANDING BUOY 0900   58     200/  8/  8 1019.6S
CAPE CHARLES BUO 0900      69                N/A     2/12   2/12
64NM E OF VA BCH 0900   60 69   20/  4/  8 1019.7R   4/12   3/12
DUCK PIER NC     0900   58 68  300/  7/  8 1019.7R
44100 DUCK FRF   0900      71                N/A     4/12   2/12
44056 DUCK FRF   0900                        N/A     4/13   2/13
OREGON INLET NC  0900   56 68  300/  3/  4 1020.3R
HATTERAS NC      0900   59 66   40/  3/  4 1020.8R
DIAMOND SHLS NC  0900   61     320/  6/ 12 1020.4R   3/11   3/11
CAPE LOOKOUT NC  0800   60     360/  7/  8 1020.4R
$$



USA.gov is the U.S. government's official web portal to all federal, state and local government web resources and services.